User: anonymous   Login
Location: Caltech
(34.1382°N, 118.1253°W)
Time: 07:21:54
(UTC-07:00)
Language:

Cosmos 1758 Rocket - Orbit

View from above orbital plane
View from above orbital plane
View from above satellite
View from above satellite

Ground track
Ground track

The orbit data is extracted from the following two-line orbital elements,

1 16792U 86046B   15086.98345067  .00000734  00000-0  87230-4 0  9999
2 16792 082.4812 246.5061 0025840 087.4120 018.9427 14.82855806554504
Epoch (UTC): 27 March 2015 23:36:10
Eccentricity: 0.0025840
inclination: 82.4812°
perigee height: 602 km
apogee height: 638 km
right ascension of ascending node: 246.5061°
argument of perigee: 87.4120°
revolutions per day: 14.82855806
mean anomaly at epoch: 18.9427°
orbit number at epoch: 55450

The dashed part of the orbit path shows where the satellite is in the earth's shadow,  

DLR